sat.trackr.live / text

‹ back to catalog

STARLINK-36292

NORAD 68509 · 2026-068B

PAYLOAD ACTIVE UNKNOWN

§ Identity

Operator
Country
US
Launch date
2026-03-30
Launch site
AFETR
Launch vehicle
Mass (kg)
RCS (m²)

Purposes: comms

External: N2YO · Heavens-Above · Gunter

§ Orbital elements

Epoch: 2026-09-19T15:58:38.619264Z

Period
93.85 min
Inclination
53.1599°
Eccentricity
0.0001229
Mean motion
15.34425267 rev/d
Perigee alt
461.8 km
Apogee alt
463.5 km
Semi-major
6,840.8 km
B*
5.5093e-4
RAAN
303.2906°
Arg perigee
92.5677°
Mean anomaly
267.5467°
Rev number
2,671

§ Raw data

STARLINK-362921 68509U 26068B   26262.66572476  .00018298  00000+0  55093-3 0  99932 68509  53.1599 303.2906 0001229  92.5677 267.5467 15.34425267 26717

JSON: /api/v1/satellites/68509 · /tle

For live sub-satellite position, see the globe view (requires WebGL).

§ Visibility from observer

Set your observer location to see the next 7 days of passes ≥ 10°. The values pass through the URL so the page stays shareable.

No JS? Fill the form by hand. The geolocation button needs JavaScript.